Погода Шамахы

Погода Шамахы : погода сейчас, прогноз погоды и архив. Всё, что Вы хотите узнать о погоде Шамахы!

Поиск расширенной информации на нашем сайте:

Другие новости

Новости СМИ2

Главная страница сайта

Новости сайта

03.07.2017

Напоминаем, что на нашем специализированном сайте Метеоцентр.Азия вы можете получить высокодетализированные автоматические прогнозы погоды по пунктам России, СНГ и мира в авиационном формате (включающие направление и скорость ветра, видимость, явления погоды, количество и форму облачности, нижнюю и верхнюю границу облачности).


Погода Шамахы - сегодня

Время (UTC), дата Ветер
(°,м/с) 
Видим.   Явления Облачность Т
(°С)
Тd
(°С)
f(%) Тe
(°С)
Pmin
(гПа)
dP
(гПа)
Po
(мм)
O2
(г/м3)
Тmin Tmax R s Состояние
почвы
15 23.05.18 090 (В) 20000 м    ясно 
+23.6 +0.6 22 +24  1020  -1  695  257           
18 23.05.18 030 (СВ) 20000 м    ясно 
+20 +1.7 30 +20  1021.3  695  260    +28.3       
21 23.05.18 020 (С) 20000 м    ясно 
+20.5 -4.7 18 +21  1020.9  -0.4  695  261           
00 24.05.18 350 (С) 20000 м    ясно 
+20.2 -4.4 19 +20  1020.9  695  261           
03 24.05.18 020 (С) 20000 м    ясно 
+20.8 -5.4 17 +21  1019  -1.2  694  260           
06 24.05.18 060 (СВ) 20000 м    8/0 средняя 
[Ac cast]
+26.4 -0.7 17 +26  1019.6  -0.8  693  255  +20         
09 24.05.18 090 (В) 20000 м    8/8 600 м 
[Sc]
+28.4 -1.2 14 +28  1016.2  -0.6  693  253           
12 24.05.18 210 (ЮЗ) 20000 м    9/9 600 м 
[Sc]
+25.7 +4.5 26 +26  1015.5  -0.8  692  254           
15 24.05.18 070 (В) 20000 м    9/9 600 м 
[Sc]
+23.9 +1.3 23 +24  1014.3  -1.4  691  256           
21 24.05.18 040 (СВ) 20000 м    ясно 
+21.2 -3.8 18 +21  1013.6  -0.8  690  258           
00 25.05.18 040 (СВ) 20000 м    ясно 
+21.1 -1.9 21 +21  1012.4  -1.2  689  258           
03 25.05.18 030 (СВ) 20000 м    10/10 600 м 
[Sc]
+21.2 -1.2 22 +21  1012.4  689  258           
06 25.05.18 070 (В) 20000 м    8/8 600 м 
[Sc]
+25.3 +3.8 25 +25  1012.5  1.4  690  254  +19.7         
09 25.05.18 070 (В) 20000 м    8/8 600 м 
[Sc]
+24.6 +3.8 26 +25  1012.2  -0.3  690  254           
12 25.05.18 050 (СВ) 20000 м    ясно 
+27.7 +4.6 23 +28  1010.4  -1.2  689  251           
15 25.05.18 180 (Ю) 20000 м    ясно 
+25.6 +5.8 28 +26  1010.7  -0.3  689  253           
18 25.05.18 250 (З) 20000 м    ясно 
+21.6 +6.7 38 +22  1012.4  0.4  689  256    +28.1       
21 25.05.18 300 (СЗ) 20000 м    ясно 
+19.6 +5.6 40 +21  1012.1  -1  688  258           
00 26.05.18 190 (Ю) 20000 м    ясно 
+20.6 +6.1 39 +21  1010.9  -0.5  688  257           
03 26.05.18 140 (ЮВ) 20000 м    5/0 верхняя 
[Ci ing]
+21.7 +8.6 43 +23  1010.9  688  255           
09 26.05.18 180 (Ю) 20000 м    6/6 600 м 
[Sc]
+25.4 +9.4 36 +27  1011.7  1.6  689  252           
12 26.05.18 230 (ЮЗ) 20000 м    4/4 1000 м 
[Cu med, cong]
+26.8 +9.4 33 +29  1010.5  -0.6  689  251           
15 26.05.18 240 (ЮЗ) 20000 м    8/8 600 м 
[Sc]
+25.4 +12.2 44 +32  1010.9  -0.2  689  252           
21 26.05.18 340 (С) 10 км  гроза, ливневой дождь  10/10 600 м кучево-дожд. 
[Cb cap]
+16 +12 77 +22  1017.6  1.7  692  261           
00 27.05.18 320 (СЗ) 10 км  {гроза, ливн. осадки}  10/10 600 м кучево-дожд. 
[Cb cap]
+16.2 +10.7 70 +21  1017.9  0.3  692  261           
Время (UTC), дата Ветер
(°,м/с) 
Видим.   Явления Облачность Т
(°С)
Тd
(°С)
f(%) Тe
(°С)
Pmin
(гПа)
dP
(гПа)
Po
(мм)
O2
(г/м3)
Тmin Tmax R s Состояние
почвы

Для получения пояснительной информации подведите курсор к названию столбца.

ПОГОДА Шамахы - архив

Всё, что Вы хотите узнать о погоде Шамахы - удобно и подробно!

Выберите нужную дату (начиная с 1 января 2015* года) и нажмите кнопку "Найти".
Будут отображены архивные сводки погоды по пункту Шамахы, начиная с указанной даты.


Отображать данные в формате CSV (для использования в таблицах Excel)


Внимание! Наш архив погоды предназначен исключительно для личного некоммерческого использования в познавательных целях. Если Вам необходимы официальные справки о состоянии погоды (для производственных, юридических, коммерческих и т.п. целей), обращайтесь в органы Росгидромета.

*Примечание: данная дата относится к архиву по метеостанциям СССР (Россия, СНГ, Балтия).
Архив по метеостанциям Зарубежной Европы и Азии (кроме Китая) хранится 10 дней, по другим регионам земного шара (Китай, Африка, Америка, Австралия, Океания) - 1 день.

Шамахы - район местоположения метеостанции


Название, широта, долгота, высота метеостанции:
Шамахы 40.6°ш. 48.6°д. 749 м над ур. моря [Азербайджан]

Дополнительная информация

В oтличие oт бoльшинства пoгoдных сайтoв мы публикуем пoдрoбную метеoинфoрмацию в детальнoм прoфессиoнальнoм фoрмате.

Характеристики температуры и влажнoсти вoздуха измеряются на высoте 2 м в тени вдали oт зданий и деревьев.
Скoрoсть ветра измеряется на высoте 10 м (на урoвне рoста челoвека скoрoсть ветра ниже в 1.5-2 раза). Если метеoстанция нахoдится в гoрoде или в лесу, тo скoрoсть ветра занижена на 2-4 м/с пo сравнению с oткрытым местoм. Скoрoсть ветра над акватoриями крупных рек и oзёр, а также на вершинах хoлмoв на 2-5 м/с выше, чем в oбычных услoвиях.
Атмoсфернoе давление в разных тoчках местнoсти мoжет значительнo oтличаться oт давления на метеoстанции, в зависимoсти oт услoвий рельефа (при пoдъёме на 10 м давление пoнижается примернo на 1 мм рт.ст.).